Regional Weather Roundup
Issued by NWS

Home | Current Version | Previous Version | Graphics & Text | Print | Product List | Glossary Off
Versions: 1 2 3 4 5 6 7 8 9 10 11 12 13 14 15 16 17 18 19 20 21 22 23 24 25 26 27 28 29 30 31 32 33 34 35 36 37 38 39 40 41 42 43 44 45 46 47 48 49 50

000
ASUS43 KMKX 040700
RWRWI

WISCONSIN REGIONAL WEATHER ROUNDUP
NATIONAL WEATHER SERVICE MILWAUKEE/SULLIVAN WI
100 AM CST SUN DEC 04 2016

NOTE: "FAIR" INDICATES FEW OR NO CLOUDS BELOW 12,000 FEET WITH NO
SIGNIFICANT WEATHER AND/OR OBSTRUCTIONS TO VISIBILITY.

WIZ001-002-006>008-014>016-023>028-040800-
NORTHWEST WISCONSIN

CITY           SKY/WX    TMP DP  RH WIND       PRES   REMARKS
SUPERIOR ARPT  CLOUDY    30  22  72 S5        30.14S WCI  25
ASHLAND        CLOUDY    29  21  72 SE6       30.16F WCI  23
HAYWARD        CLOUDY    28  21  75 SE5       30.12F WCI  23
SIREN          FLURRIES  30  23  75 S9        30.12S WCI  21
CUMBERLAND     FLURRIES  28  23  80 SE7       30.12F WCI  21
RICE LAKE      FLURRIES  29  24  79 SE8       30.14F WCI  21
CHETEK         CLOUDY    29  23  79 SE6       30.15F WCI  23
LADYSMITH      CLOUDY    29  24  81 SE3       30.17S
EAU CLAIRE     NOT AVBL
MENOMONIE      CLOUDY    31  25  80 SE8       30.15F WCI  23
NEW RICHMOND   LGT SNOW  30  26  84 SE6       30.12F WCI  24
OSCEOLA        LGT SNOW  30  27  88 SE7       30.14F WCI  23
$$

WIZ003>005-009-010-017-018-040800-
NORTH CENTRAL WISCONSIN

CITY           SKY/WX    TMP DP  RH WIND       PRES   REMARKS
MANITOWISH WTR CLOUDY    26  21  80 S3        30.13F
ARBOR VITAE    CLOUDY    29  23  76 S5        30.14F WCI  24
WOODRUFF       CLOUDY    29  23  76 S5        30.14F WCI  24
RHINELANDER    CLOUDY    28  22  78 S5        30.15F WCI  23
EAGLE RIVER    CLOUDY    26  19  72 CALM      30.15S
LAND O LAKES   CLOUDY    27  20  76 S5        30.16S WCI  21
PHILLIPS       CLOUDY    25  21  87 SE5       30.14S WCI  19
TOMAHAWK       CLOUDY    27  20  77 CALM      30.16F
MEDFORD        CLOUDY    26  22  85 SE5       30.15S WCI  20
MERRILL        CLOUDY    27  22  82 S3        30.18F
$$

WIZ029-030-035-036-043>047-040800-
CENTRAL WISCONSIN

CITY           SKY/WX    TMP DP  RH WIND       PRES   REMARKS
WAUSAU         CLOUDY    27  21  78 SE8       30.17F WCI  19
MOSINEE        CLOUDY    28  25  86 SE5       30.19F WCI  23
MARSHFIELD     CLOUDY    28  22  78 S8        30.16F WCI  20
STEVENS POINT  CLOUDY    26  20  77 SE3       30.20F
WAUPACA        CLOUDY    31  24  74 CALM      30.23F
WAUTOMA        CLOUDY    28  23  81 SE3       30.22F
WISC RAPIDS    CLOUDY    28  23  81 SE6       30.20F WCI  22
CAMP DOUGLAS   CLOUDY    32  25  74 SE6       30.18F WCI  26
$$

WIZ011>013-019>022-031-037>040-048>050-040800-
NORTHEAST WISCONSIN

CITY           SKY/WX    TMP DP  RH WIND       PRES   REMARKS
ANTIGO         CLOUDY    26  22  82 S5        30.17F WCI  21
SHAWANO        CLOUDY    32  24  74 CALM      30.22F
OCONTO         CLOUDY    31  23  71 SW3       30.22F
STURGEON BAY   CLOUDY    31  24  75 S5        30.24S WCI  26
GREEN BAY      CLOUDY    32  27  81 S3        30.23F
MANITOWOC      CLOUDY    30  25  80 CALM      30.25S
APPLETON       CLOUDY    30  21  69 S3        30.20F
CLINTONVILLE   CLOUDY    30  23  74 S3        30.22F
OSHKOSH        PTCLDY    29  23  78 S3        30.22F
$$

WIZ032>034-041-042-053>061-040800-
SOUTHWEST WISCONSIN

CITY           SKY/WX    TMP DP  RH WIND       PRES   REMARKS
LA CROSSE      LGT SNOW  33  29  85 SE7       30.17F FOG     WCI  27
SPARTA         CLOUDY    32  27  80 CALM      30.18F
VIROQUA        CLOUDY    30  29  94 SE7       30.15F WCI  23
BOSCOBEL       LGT SNOW  34  29  82 CALM      30.19F
PRAIRIE DU CHI LGT SNOW  33  30  91 E5        30.18F WCI  28
PLATTEVILLE    PTCLDY    33  31  92 S7        30.19F WCI  27
$$

WIZ056-057-062-063-064-067-068-040800-
SOUTH CENTRAL WISCONSIN

CITY           SKY/WX    TMP DP  RH WIND       PRES   REMARKS
REEDSBURG      CLOUDY    31  26  81 CALM      30.19F
BARABOO/DELLS  CLOUDY    31  25  80 S5        30.19F WCI  26
LONE ROCK      NOT AVBL
MINERAL POINT  CLOUDY    32  32 100 SE6       30.17F WCI  26
MADISON        CLOUDY    32  25  75 SE7       30.21F WCI  26
MIDDLETON      MOCLDY    33  27  78 S6        30.20F WCI  28
WATERTOWN      MOCLDY    29  27  91 SE3       30.23F
MONROE         CLOUDY    32  28  86 S7        30.19F WCI  26
JANESVILLE     CLOUDY    34  30  86 S5        30.23S WCI  30
$$

WIZ051-052-058>065-066-070>072-040800-
SOUTHEAST WISCONSIN

CITY           SKY/WX    TMP DP  RH WIND       PRES   REMARKS
MILWAUKEE      PTCLDY    31  22  69 SW5       30.24F WCI  26
WAUKESHA       MOCLDY    28  23  80 S6        30.25F WCI  22
MILWAUKEE/TIMM CLOUDY    30  21  69 CALM      30.26S
RACINE         CLEAR     28  21  75 SW3       30.26F
BURLINGTON     CLOUDY    29  26  86 CALM      30.24F
KENOSHA        CLOUDY    30  24  78 CALM      30.25F
FOND DU LAC    MOCLDY    31  23  72 SE5       30.23F WCI  26
SHEBOYGAN      CLOUDY    29  24  82 CALM      30.24F
WEST BEND      CLOUDY    28  25  86 CALM      30.23F
JUNEAU         CLOUDY    29  25  85 SE6       30.23F WCI  23
$$

LSZ147-162-040800-
LAKE SUPERIOR

STATION/POSITION TIME  TEMP    WIND        PRES    WAVE
                       AIR SEA DIR/SP/G            HT/PER
                 (UTC) (F)     (DEG/KT/KT) (MB)    (FT/S)
DEVILS ISLAND    0600   32     190/  7/ 11 1022.3F
PORT WING        0640   29     130/  1/  5 1021.0F
SAXON HARBOR     0630   31     170/  2/  5 1021.3F
$$

LMZ867-665-643>646-040800-
LAKE MICHIGAN

STATION/POSITION TIME  TEMP    WIND        PRES    WAVE
                       AIR SEA DIR/SP/G            HT/PER
                 (UTC) (F)     (DEG/KT/KT) (MB)    (FT/S)
CHAMBERS ISLAND  0630   32     210/  4/  8 1023.0S
NORTHPORT PIER   0640   32      CALM  /  3 1023.4F
SISTER BAY       0553   32     180/  7/  9   N/A
ALGOMA LAKESHORE 0621          280/  4/  6   N/A
KEWAUNEE LAKESHO 0630   32     230/  4/  6 1023.6R
SHEBOYGAN LAKESH 0600   32     240/  4/  5 1024.9F
PORT WASHINGTON  0630   31     270/  2/  4 1025.4S
MILWAUKEE LAKESH 0630   33     240/  6/  7   N/A
S MID LAKE BUOY  0550   35 48  280/  2/  8 1025.1S   1
KENOSHA   LAKESH 0600   32     240/  4/  5 1024.7
$$

TC  - TEMPERATURE IN CELSIUS
VSB - VISIBILITY IN STATUTE MILES
WCI - WIND CHILL INDEX
HX  - HEAT INDEX




USA.gov is the U.S. government's official web portal to all federal, state and local government web resources and services.